When you browse on this site, cookies collect data to enhance your experience and personalize the content and advertising you see.
Visit our Privacy Policy to learn more. By continuing to use the site, you agree to this use of cookies and data.
  • In Österreich
  • Länderverzeichnis
  • Für 7 Tage
  • Wassertemperatur
  • Satellitenkarten
  • Wetterkarte
  • News
  • Widgets
  • user-avatar
    Anmelden

    Stündliche Wetter Rohovi Smolyary

    Heute, 21 Februar, Donnerstag

    Zeit Temperatur Niederschläge Wind Luftdruck Luftfeuchtigkeit
    00:00 +1°C° 0 mm 5 m/S 748 mmHg 75%
    01:00 0°C° 0 mm 5 m/S 749 mmHg 79%
    02:00 0°C° 0 mm 4 m/S 749 mmHg 82%
    03:00 -1°C° 0 mm 4 m/S 749 mmHg 85%
    04:00 -1°C° 0 mm 4 m/S 749 mmHg 87%
    05:00 -1°C° 0 mm 3 m/S 749 mmHg 90%
    06:00 -1°C° 0 mm 4 m/S 749 mmHg 91%
    07:00 -1°C° 0 mm 4 m/S 750 mmHg 92%
    08:00 -1°C° 0 mm 4 m/S 750 mmHg 93%
    09:00 0°C° 0 mm 4 m/S 750 mmHg 88%
    10:00 +1°C° 0 mm 4 m/S 750 mmHg 83%
    11:00 +3°C° 0 mm 4 m/S 750 mmHg 77%
    12:00 +3°C° 0.1 mm 4 m/S 750 mmHg 80%
    13:00 +3°C° 0.1 mm 3 m/S 750 mmHg 83%
    14:00 +3°C° 0.1 mm 3 m/S 750 mmHg 85%
    15:00 +3°C° 0.3 mm 3 m/S 749 mmHg 88%
    16:00 +3°C° 0.3 mm 3 m/S 749 mmHg 90%
    17:00 +4°C° 0.3 mm 2 m/S 749 mmHg 92%
    18:00 +4°C° 0.7 mm 2 m/S 749 mmHg 93%
    19:00 +4°C° 0.7 mm 2 m/S 748 mmHg 93%
    20:00 +4°C° 0.7 mm 2 m/S 748 mmHg 94%
    21:00 +3°C° 0.8 mm 2 m/S 748 mmHg 94%
    22:00 +3°C° 0.8 mm 2 m/S 748 mmHg 94%
    23:00 +3°C° 0.8 mm 2 m/S 748 mmHg 95%

    Morgen, 22 Februar, Freitag

    Zeit Temperatur Niederschläge Wind Luftdruck Luftfeuchtigkeit
    00:00 +1°C° 0.9 mm 3 m/S 748 mmHg 94%
    01:00 -1°C° 0.9 mm 4 m/S 748 mmHg 93%
    02:00 -2°C° 0.9 mm 5 m/S 748 mmHg 92%
    03:00 -4°C° 0.5 mm 6 m/S 748 mmHg 91%
    04:00 -5°C° 0.5 mm 6 m/S 748 mmHg 90%
    05:00 -5°C° 0.5 mm 6 m/S 748 mmHg 88%
    06:00 -6°C° 0.1 mm 6 m/S 750 mmHg 83%
    07:00 -6°C° 0.1 mm 6 m/S 751 mmHg 78%
    08:00 -6°C° 0.1 mm 6 m/S 752 mmHg 74%
    09:00 -6°C° 0 mm 6 m/S 753 mmHg 70%
    10:00 -6°C° 0 mm 6 m/S 754 mmHg 66%
    11:00 -8°C° 0 mm 6 m/S 755 mmHg 62%
    12:00 -6°C° 0 mm 6 m/S 756 mmHg 60%
    13:00 -6°C° 0 mm 6 m/S 757 mmHg 58%
    14:00 -6°C° 0 mm 6 m/S 757 mmHg 56%
    15:00 -6°C° 0 mm 5 m/S 758 mmHg 55%
    16:00 -6°C° 0 mm 5 m/S 758 mmHg 54%
    17:00 -6°C° 0 mm 5 m/S 758 mmHg 54%
    18:00 -7°C° 0 mm 5 m/S 759 mmHg 54%
    19:00 -7°C° 0 mm 5 m/S 760 mmHg 54%
    20:00 -8°C° 0 mm 5 m/S 760 mmHg 55%
    21:00 -8°C° 0 mm 5 m/S 761 mmHg 55%
    22:00 -8°C° 0 mm 5 m/S 761 mmHg 55%
    23:00 -8°C° 0 mm 5 m/S 761 mmHg 56%

    übermorgen, 23 Februar, Samstag

    Zeit Temperatur Niederschläge Wind Luftdruck Luftfeuchtigkeit
    00:00 -8°C° 0 mm 5 m/S 762 mmHg 56%
    01:00 -8°C° 0 mm 4 m/S 762 mmHg 57%
    02:00 -8°C° 0 mm 4 m/S 762 mmHg 58%
    03:00 -9°C° 0 mm 4 m/S 762 mmHg 59%
    04:00 -9°C° 0 mm 4 m/S 762 mmHg 61%
    05:00 -9°C° 0 mm 4 m/S 763 mmHg 62%
    06:00 -9°C° 0 mm 4 m/S 763 mmHg 63%
    07:00 -8°C° 0 mm 3 m/S 763 mmHg 64%
    08:00 -8°C° 0 mm 3 m/S 763 mmHg 66%
    09:00 -9°C° 0 mm 4 m/S 764 mmHg 62%
    10:00 -8°C° 0 mm 4 m/S 764 mmHg 58%
    11:00 -8°C° 0 mm 4 m/S 764 mmHg 55%
    12:00 -7°C° 0 mm 4 m/S 764 mmHg 53%
    13:00 -7°C° 0 mm 4 m/S 764 mmHg 51%
    14:00 -5°C° 0 mm 4 m/S 764 mmHg 49%
    15:00 -5°C° 0 mm 4 m/S 764 mmHg 49%
    16:00 -5°C° 0 mm 4 m/S 764 mmHg 49%
    17:00 -5°C° 0 mm 4 m/S 763 mmHg 49%
    18:00 -5°C° 0 mm 3 m/S 763 mmHg 52%
    19:00 -6°C° 0 mm 3 m/S 764 mmHg 55%
    20:00 -5°C° 0 mm 2 m/S 764 mmHg 58%
    21:00 -5°C° 0 mm 2 m/S 764 mmHg 59%
    22:00 -5°C° 0 mm 2 m/S 764 mmHg 60%
    23:00 -3°C° 0 mm 1 m/S 764 mmHg 61%

    24 Februar, Sonntag

    Zeit Temperatur Niederschläge Wind Luftdruck Luftfeuchtigkeit
    00:00 -5°C° 0 mm 2 m/S 763 mmHg 62%
    01:00 -6°C° 0 mm 2 m/S 763 mmHg 63%
    02:00 -6°C° 0 mm 2 m/S 763 mmHg 64%
    03:00 -5°C° 0 mm 2 m/S 762 mmHg 61%
    04:00 -5°C° 0 mm 2 m/S 762 mmHg 59%
    05:00 -5°C° 0 mm 2 m/S 762 mmHg 57%
    06:00 -5°C° 0 mm 2 m/S 761 mmHg 56%
    07:00 -5°C° 0 mm 2 m/S 761 mmHg 55%
    08:00 -5°C° 0 mm 2 m/S 761 mmHg 54%
    09:00 -4°C° 0 mm 2 m/S 761 mmHg 50%
    10:00 -4°C° 0 mm 3 m/S 760 mmHg 45%
    11:00 -2°C° 0 mm 3 m/S 760 mmHg 41%
    12:00 -2°C° 0 mm 4 m/S 760 mmHg 40%
    13:00 -2°C° 0 mm 4 m/S 759 mmHg 40%
    14:00 -1°C° 0 mm 4 m/S 759 mmHg 39%
    15:00 -1°C° 0 mm 4 m/S 758 mmHg 41%
    16:00 0°C° 0 mm 3 m/S 758 mmHg 44%
    17:00 -1°C° 0 mm 3 m/S 757 mmHg 46%
    18:00 -1°C° 0 mm 3 m/S 757 mmHg 50%
    19:00 -1°C° 0 mm 3 m/S 757 mmHg 55%
    20:00 -1°C° 0 mm 3 m/S 756 mmHg 60%
    21:00 -1°C° 0 mm 3 m/S 756 mmHg 63%
    22:00 -1°C° 0 mm 3 m/S 756 mmHg 67%
    23:00 -1°C° 0 mm 3 m/S 755 mmHg 70%

    25 Februar, Montag

    Zeit Temperatur Niederschläge Wind Luftdruck Luftfeuchtigkeit
    00:00 -1°C° 0.1 mm 3 m/S 755 mmHg 75%
    01:00 -1°C° 0.1 mm 3 m/S 755 mmHg 80%
    02:00 -1°C° 0.1 mm 3 m/S 754 mmHg 85%
    03:00 -1°C° 0 mm 3 m/S 754 mmHg 87%
    04:00 -1°C° 0 mm 3 m/S 754 mmHg 88%
    05:00 -2°C° 0 mm 4 m/S 753 mmHg 90%
    06:00 -2°C° 0 mm 4 m/S 753 mmHg 91%
    07:00 -1°C° 0 mm 5 m/S 754 mmHg 93%
    08:00 0°C° 0 mm 5 m/S 754 mmHg 94%
    09:00 -1°C° 0 mm 6 m/S 754 mmHg 89%
    10:00 -1°C° 0 mm 6 m/S 755 mmHg 84%
    11:00 -1°C° 0 mm 7 m/S 755 mmHg 78%
    12:00 0°C° 0 mm 7 m/S 755 mmHg 75%
    13:00 0°C° 0 mm 7 m/S 756 mmHg 72%
    14:00 +2°C° 0 mm 6 m/S 756 mmHg 69%
    15:00 +1°C° 0 mm 6 m/S 756 mmHg 67%
    16:00 +1°C° 0 mm 5 m/S 756 mmHg 66%
    17:00 +1°C° 0 mm 5 m/S 756 mmHg 64%
    18:00 0°C° 0 mm 5 m/S 756 mmHg 68%
    19:00 0°C° 0 mm 5 m/S 756 mmHg 72%
    20:00 -1°C° 0 mm 5 m/S 757 mmHg 76%
    21:00 -1°C° 0 mm 5 m/S 757 mmHg 79%
    22:00 -2°C° 0 mm 4 m/S 756 mmHg 82%
    23:00 -2°C° 0 mm 4 m/S 756 mmHg 85%

    26 Februar, Dienstag

    Zeit Temperatur Niederschläge Wind Luftdruck Luftfeuchtigkeit
    00:00 -2°C° 0 mm 4 m/S 756 mmHg 86%
    01:00 -2°C° 0 mm 4 m/S 755 mmHg 87%
    02:00 -2°C° 0 mm 4 m/S 755 mmHg 88%
    03:00 -2°C° 0 mm 5 m/S 754 mmHg 85%
    04:00 -2°C° 0 mm 5 m/S 753 mmHg 83%
    05:00 -2°C° 0 mm 5 m/S 753 mmHg 80%
    06:00 -2°C° 0 mm 5 m/S 752 mmHg 81%
    07:00 -2°C° 0 mm 5 m/S 752 mmHg 81%
    08:00 -2°C° 0 mm 5 m/S 752 mmHg 82%
    09:00 -1°C° 0 mm 5 m/S 751 mmHg 81%
    10:00 0°C° 0 mm 5 m/S 751 mmHg 81%
    11:00 +1°C° 0 mm 5 m/S 751 mmHg 81%
    12:00 +1°C° 0 mm 5 m/S 750 mmHg 81%
    13:00 +1°C° 0 mm 5 m/S 750 mmHg 81%
    14:00 +1°C° 0 mm 5 m/S 749 mmHg 82%
    15:00 +1°C° 0 mm 5 m/S 749 mmHg 83%
    16:00 +1°C° 0 mm 5 m/S 748 mmHg 84%
    17:00 +1°C° 0 mm 6 m/S 748 mmHg 85%
    18:00 +2°C° 0.1 mm 6 m/S 747 mmHg 86%
    19:00 +2°C° 0.1 mm 6 m/S 747 mmHg 86%
    20:00 +2°C° 0.1 mm 7 m/S 746 mmHg 87%
    21:00 0°C° 0 mm 7 m/S 746 mmHg 87%
    22:00 0°C° 0 mm 7 m/S 746 mmHg 87%
    23:00 -1°C° 0 mm 7 m/S 746 mmHg 88%
    Mehr zeigen